When you browse on this site, cookies collect data to enhance your experience and personalize the content and advertising you see.
Visit our Privacy Policy to learn more. By continuing to use the site, you agree to this use of cookies and data.
  • en France
  • Liste des pays
  • À 7 jours
  • Température de l'eau
  • Carte météo
  • Widgets météo
  • user-avatar
    Se connecter

    Météo par heure à Ganja

    Ce jour, 23 Août, Vendredi

    Heure Température Précipitation Vent Pression Humidité
    00:00 +26°C° 0 mm 4 m/s 724 mmHg 34%
    01:00 +26°C° 0 mm 3 m/s 724 mmHg 34%
    02:00 +25°C° 0 mm 3 m/s 724 mmHg 35%
    03:00 +24°C° 0 mm 2 m/s 724 mmHg 37%
    04:00 +24°C° 0 mm 2 m/s 724 mmHg 39%
    05:00 +24°C° 0 mm 2 m/s 724 mmHg 41%
    06:00 +24°C° 0 mm 1 m/s 724 mmHg 43%
    07:00 +26°C° 0 mm 2 m/s 725 mmHg 40%
    08:00 +29°C° 0 mm 3 m/s 725 mmHg 36%
    09:00 +32°C° 0 mm 4 m/s 725 mmHg 33%
    10:00 +34°C° 0 mm 5 m/s 725 mmHg 30%
    11:00 +36°C° 0 mm 7 m/s 724 mmHg 26%
    12:00 +38°C° 0 mm 9 m/s 724 mmHg 23%
    13:00 +39°C° 0 mm 9 m/s 724 mmHg 23%
    14:00 +39°C° 0 mm 9 m/s 723 mmHg 23%
    15:00 +39°C° 0 mm 9 m/s 723 mmHg 23%
    16:00 +39°C° 0 mm 8 m/s 723 mmHg 24%
    17:00 +38°C° 0 mm 8 m/s 723 mmHg 25%
    18:00 +36°C° 0 mm 7 m/s 723 mmHg 26%
    19:00 +34°C° 0 mm 7 m/s 723 mmHg 27%
    20:00 +33°C° 0 mm 6 m/s 724 mmHg 29%
    21:00 +30°C° 0 mm 6 m/s 724 mmHg 31%
    22:00 +29°C° 0 mm 5 m/s 724 mmHg 32%
    23:00 +28°C° 0 mm 4 m/s 724 mmHg 32%

    Demain, 24 Août, Samedi

    Heure Température Précipitation Vent Pression Humidité
    00:00 +28°C° 0 mm 4 m/s 724 mmHg 33%
    01:00 +27°C° 0 mm 3 m/s 724 mmHg 35%
    02:00 +26°C° 0 mm 3 m/s 724 mmHg 36%
    03:00 +26°C° 0 mm 2 m/s 724 mmHg 38%
    04:00 +25°C° 0 mm 2 m/s 724 mmHg 40%
    05:00 +25°C° 0 mm 2 m/s 724 mmHg 43%
    06:00 +25°C° 0 mm 1 m/s 724 mmHg 45%
    07:00 +27°C° 0 mm 2 m/s 724 mmHg 41%
    08:00 +29°C° 0 mm 2 m/s 725 mmHg 38%
    09:00 +31°C° 0 mm 2 m/s 725 mmHg 34%
    10:00 +34°C° 0 mm 3 m/s 724 mmHg 30%
    11:00 +36°C° 0 mm 4 m/s 724 mmHg 27%
    12:00 +37°C° 0 mm 5 m/s 724 mmHg 23%
    13:00 +39°C° 0 mm 6 m/s 724 mmHg 23%
    14:00 +39°C° 0 mm 6 m/s 723 mmHg 22%
    15:00 +40°C° 0 mm 6 m/s 723 mmHg 22%
    16:00 +39°C° 0 mm 5 m/s 723 mmHg 24%
    17:00 +37°C° 0 mm 5 m/s 723 mmHg 25%
    18:00 +36°C° 0 mm 5 m/s 723 mmHg 27%
    19:00 +34°C° 0.1 mm 5 m/s 724 mmHg 30%
    20:00 +33°C° 0.1 mm 5 m/s 725 mmHg 32%
    21:00 +30°C° 0.1 mm 5 m/s 725 mmHg 34%
    22:00 +29°C° 0.1 mm 4 m/s 725 mmHg 37%
    23:00 +28°C° 0.1 mm 3 m/s 725 mmHg 39%

    Après-demain, 25 Août, Dimanche

    Heure Température Précipitation Vent Pression Humidité
    00:00 +28°C° 0.1 mm 2 m/s 725 mmHg 41%
    01:00 +27°C° 0 mm 2 m/s 725 mmHg 42%
    02:00 +26°C° 0 mm 2 m/s 725 mmHg 44%
    03:00 +25°C° 0 mm 2 m/s 724 mmHg 45%
    04:00 +25°C° 0 mm 2 m/s 724 mmHg 45%
    05:00 +25°C° 0 mm 2 m/s 724 mmHg 45%
    06:00 +25°C° 0 mm 2 m/s 724 mmHg 44%
    07:00 +27°C° 0 mm 2 m/s 724 mmHg 41%
    08:00 +29°C° 0 mm 3 m/s 725 mmHg 38%
    09:00 +31°C° 0 mm 3 m/s 725 mmHg 35%
    10:00 +33°C° 0 mm 3 m/s 724 mmHg 33%
    11:00 +35°C° 0 mm 2 m/s 724 mmHg 30%
    12:00 +36°C° 0 mm 2 m/s 724 mmHg 27%
    13:00 +36°C° 0.1 mm 2 m/s 724 mmHg 26%
    14:00 +37°C° 0.1 mm 2 m/s 723 mmHg 26%
    15:00 +37°C° 0.1 mm 2 m/s 723 mmHg 25%
    16:00 +36°C° 0.1 mm 2 m/s 723 mmHg 27%
    17:00 +34°C° 0.1 mm 1 m/s 723 mmHg 30%
    18:00 +33°C° 0.1 mm 1 m/s 723 mmHg 32%
    19:00 +32°C° 0 mm 2 m/s 724 mmHg 34%
    20:00 +30°C° 0 mm 3 m/s 724 mmHg 36%
    21:00 +29°C° 0 mm 4 m/s 725 mmHg 39%
    22:00 +28°C° 0 mm 4 m/s 725 mmHg 39%
    23:00 +28°C° 0 mm 4 m/s 725 mmHg 40%

    26 Août, Lundi

    Heure Température Précipitation Vent Pression Humidité
    00:00 +27°C° 0 mm 3 m/s 725 mmHg 41%
    01:00 +26°C° 0 mm 3 m/s 725 mmHg 44%
    02:00 +25°C° 0 mm 2 m/s 725 mmHg 46%
    03:00 +24°C° 0 mm 1 m/s 725 mmHg 48%
    04:00 +24°C° 0.1 mm 1 m/s 725 mmHg 51%
    05:00 +24°C° 0.1 mm 1 m/s 725 mmHg 53%
    06:00 +24°C° 0.1 mm 1 m/s 725 mmHg 55%
    07:00 +26°C° 0.1 mm 1 m/s 725 mmHg 50%
    08:00 +27°C° 0.1 mm 1 m/s 725 mmHg 46%
    09:00 +29°C° 0.1 mm 2 m/s 725 mmHg 42%
    10:00 +30°C° 0.2 mm 2 m/s 725 mmHg 38%
    11:00 +31°C° 0.2 mm 3 m/s 725 mmHg 33%
    12:00 +34°C° 0.2 mm 4 m/s 725 mmHg 29%
    13:00 +34°C° 0.5 mm 4 m/s 725 mmHg 28%
    14:00 +34°C° 0.5 mm 4 m/s 724 mmHg 26%
    15:00 +35°C° 0.5 mm 4 m/s 724 mmHg 25%
    16:00 +34°C° 0.2 mm 4 m/s 724 mmHg 29%
    17:00 +33°C° 0.2 mm 4 m/s 724 mmHg 32%
    18:00 +31°C° 0.2 mm 3 m/s 725 mmHg 36%
    19:00 +30°C° 0.1 mm 4 m/s 725 mmHg 40%
    20:00 +29°C° 0.1 mm 4 m/s 726 mmHg 44%
    21:00 +28°C° 0.1 mm 4 m/s 727 mmHg 48%
    22:00 +27°C° 0 mm 4 m/s 727 mmHg 49%
    23:00 +27°C° 0 mm 3 m/s 727 mmHg 51%

    27 Août, Mardi

    Heure Température Précipitation Vent Pression Humidité
    00:00 +26°C° 0 mm 3 m/s 727 mmHg 52%
    01:00 +26°C° 0.1 mm 3 m/s 727 mmHg 56%
    02:00 +25°C° 0.1 mm 3 m/s 727 mmHg 59%
    03:00 +24°C° 0.1 mm 3 m/s 726 mmHg 63%
    04:00 +24°C° 0 mm 3 m/s 726 mmHg 65%
    05:00 +22°C° 0 mm 3 m/s 726 mmHg 68%
    06:00 +22°C° 0 mm 3 m/s 727 mmHg 71%
    07:00 +24°C° 0.1 mm 3 m/s 726 mmHg 67%
    08:00 +25°C° 0.1 mm 4 m/s 726 mmHg 64%
    09:00 +26°C° 0.1 mm 5 m/s 726 mmHg 60%
    10:00 +27°C° 0.3 mm 5 m/s 726 mmHg 57%
    11:00 +28°C° 0.3 mm 5 m/s 726 mmHg 54%
    12:00 +29°C° 0.3 mm 5 m/s 725 mmHg 51%
    13:00 +30°C° 0.2 mm 4 m/s 725 mmHg 49%
    14:00 +30°C° 0.2 mm 4 m/s 724 mmHg 47%
    15:00 +32°C° 0.2 mm 4 m/s 724 mmHg 44%
    16:00 +30°C° 0.1 mm 4 m/s 724 mmHg 45%
    17:00 +30°C° 0.1 mm 3 m/s 724 mmHg 46%
    18:00 +29°C° 0.1 mm 3 m/s 724 mmHg 47%
    19:00 +28°C° 0.2 mm 3 m/s 724 mmHg 52%
    20:00 +27°C° 0.2 mm 3 m/s 724 mmHg 57%
    21:00 +26°C° 0.2 mm 3 m/s 725 mmHg 61%
    22:00 +25°C° 0.5 mm 3 m/s 725 mmHg 66%
    23:00 +24°C° 0.5 mm 3 m/s 725 mmHg 71%

    28 Août, Mercredi

    Heure Température Précipitation Vent Pression Humidité
    00:00 +22°C° 0.5 mm 3 m/s 724 mmHg 76%
    01:00 +23°C° 0 mm 2 m/s 724 mmHg 77%
    02:00 +21°C° 0 mm 2 m/s 724 mmHg 78%
    03:00 +22°C° 0 mm 1 m/s 724 mmHg 80%
    04:00 +22°C° 0 mm 1 m/s 724 mmHg 80%
    05:00 +22°C° 0 mm 1 m/s 724 mmHg 80%
    06:00 +22°C° 0 mm 1 m/s 724 mmHg 80%
    07:00 +24°C° 0 mm 1 m/s 724 mmHg 74%
    08:00 +25°C° 0 mm 2 m/s 724 mmHg 67%
    09:00 +27°C° 0 mm 2 m/s 724 mmHg 61%
    10:00 +27°C° 0 mm 2 m/s 724 mmHg 57%
    11:00 +28°C° 0 mm 2 m/s 724 mmHg 53%
    12:00 +29°C° 0 mm 3 m/s 724 mmHg 49%
    13:00 +30°C° 0.1 mm 3 m/s 724 mmHg 46%
    14:00 +31°C° 0.1 mm 3 m/s 724 mmHg 43%
    15:00 +33°C° 0.1 mm 3 m/s 723 mmHg 41%
    16:00 +31°C° 0.1 mm 3 m/s 724 mmHg 42%
    17:00 +31°C° 0.1 mm 3 m/s 724 mmHg 43%
    18:00 +30°C° 0.1 mm 3 m/s 724 mmHg 44%
    19:00 +29°C° 0 mm 3 m/s 724 mmHg 47%
    20:00 +28°C° 0 mm 4 m/s 725 mmHg 49%
    21:00 +27°C° 0 mm 4 m/s 726 mmHg 52%
    22:00 +26°C° 0 mm 4 m/s 726 mmHg 53%
    23:00 +26°C° 0 mm 4 m/s 726 mmHg 55%
    Voir plus